Location: Chenango Forks
(42.2242°N, 75.8278°W)
Time: 14:24:00
(UTC-04:00)

Daily predictions for brighter satellites

Satellite Brightness Start Highest point End
(mag) Time Altitude Azimuth Time Altitude Azimuth Time Altitude Azimuth
Cosmos 2251 Rocket 3.7 20:52:17 10° SSW 20:57:35 86° WNW 21:02:59 10° NNE
Cosmos 1892 Rocket 3.6 20:59:27 10° S 21:03:54 87° E 21:08:24 10° N
ERS-1 Rocket 3.0 20:59:16 10° SSE 21:04:16 77° ENE 21:09:18 10° N
Cosmos 1603 4.4 21:00:03 10° SSE 21:04:58 32° ESE 21:09:54 10° NE
USA 234 3.9 20:59:54 10° ESE 21:06:11 50° NNE 21:12:28 10° NW
Envisat 3.5 21:03:25 10° SE 21:08:12 44° ENE 21:13:01 10° N
Meteor 2-9 Rocket 4.3 21:03:35 10° N 21:09:15 66° ENE 21:15:00 10° SSE
Cosmos 1110 Rocket 4.4 21:04:13 10° NNW 21:09:30 69° WSW 21:14:42 10° S
SJ-11-01 4.3 21:05:43 10° SSE 21:10:22 79° ENE 21:15:04 10° N
USA 186 3.5 21:11:26 10° SSW 21:13:58 27° W 21:16:21 10° NW
Abrixas rocket 2.4 21:11:51 10° WNW 21:15:15 70° SSW 21:18:26 12° SE
Meteor 2-4 Rocket 3.9 21:10:14 10° S 21:16:05 86° E 21:22:04 10° N
Okean 2 3.4 21:14:10 10° S 21:18:21 89° E 21:22:33 10° N
Cosmos 2333 Rocket 4.2 21:13:24 10° WSW 21:18:27 33° NW 21:23:34 10° N
Cosmos 2297 4.3 21:13:50 10° NNW 21:19:26 59° WSW 21:25:02 10° S
BREEZE M DEB (TANK) 1.7 21:16:40 10° WNW 21:19:54 61° N 21:21:50 10° E
Timation 1 Rocket 4.4 21:18:27 10° NNW 21:24:29 72° ENE 21:30:10 11° SSE
Tsikada Rocket 4.3 21:18:37 10° SSE 21:24:47 51° E 21:30:56 10° NNE
Cosmos 1943 4.4 21:25:39 10° SSE 21:29:46 22° E 21:33:57 10° NE
YAOGAN 6 3.9 21:27:50 13° ESE 21:30:25 27° ENE 21:33:38 10° NNE
PSLV R/B 4.0 21:29:58 10° SW 21:33:15 35° SSE 21:36:28 10° E
ISS -2.1 21:30:55 10° S 21:33:28 21° SE 21:36:02 10° E
Cosmos 2285 Rocket 4.4 21:28:10 10° NNW 21:34:25 64° WSW 21:40:39 10° S
Cosmos 1943 Rocket 4.3 21:34:44 10° NNE 21:37:21 13° NE 21:39:59 10° ENE
Cosmos 1461 2.9 21:34:39 10° NNW 21:39:00 90° ENE 21:42:09 17° SSE
CZ-2C R/B 3.3 21:38:11 10° SW 21:39:48 17° W 21:41:25 10° NW
MetOp-A 4.3 21:35:19 13° SSE 21:40:05 60° ENE 21:45:22 10° N
SPOT 5 2.6 21:36:20 12° SSE 21:40:28 77° ENE 21:44:49 10° N
Cosmos 2058 Rocket 4.2 21:36:42 10° NNW 21:40:49 42° W 21:44:55 10° SSW
Cosmos 1464 Rocket 4.5 21:38:54 10° NNW 21:44:57 61° W 21:51:00 10° S
Cosmos 1602 Rocket 3.6 21:42:29 10° S 21:46:58 88° W 21:51:28 10° N
CZ-4 SHROUD 3.5 21:46:44 14° S 21:49:20 67° W 21:52:29 10° NNW
H-2A R/B 3.6 21:48:11 13° ESE 21:51:04 21° ENE 21:54:48 10° NNE
Cosmos 1825 Rocket 4.4 21:49:40 19° SE 21:52:10 33° E 21:56:09 10° NNE
GRACE-1 4.1 21:50:01 10° N 21:52:53 70° W 21:55:07 15° S
GRACE-2 4.1 21:50:27 10° N 21:53:20 70° W 21:55:33 15° S
Aureole 2 Rocket 3.9 21:50:38 10° SW 21:54:23 43° WNW 21:57:49 10° N
Cosmos 1812 Rocket 3.5 21:52:43 10° N 21:57:07 85° E 22:00:27 17° S
SPOT 1/Viking Rocket 3.6 21:55:42 19° SSE 21:59:25 63° ENE 22:04:31 10° N
Cosmos 1816 Rocket 4.5 21:55:18 10° S 22:01:38 77° E 22:07:59 10° N
Terra 3.3 22:00:40 16° ESE 22:03:01 24° ENE 22:06:47 10° NNE
Cosmos 1634 Rocket 4.2 21:58:51 10° N 22:04:55 54° ENE 22:08:55 21° SSE
USA 245 4.2 22:05:43 18° SSE 22:10:17 81° ENE 22:15:33 10° N
H-2A R/B 4.1 22:07:02 10° SSW 22:10:29 24° W 22:14:01 10° NW
Atlas Centaur 2 3.7 22:04:07 10° SW 22:10:56 33° S 22:15:35 20° ESE
SeaSat 1 3.0 22:07:21 17° S 22:11:02 54° WSW 22:15:53 10° NW
Cosmos 2369 Rocket 2.5 22:07:43 10° NNW 22:13:18 53° ENE 22:16:29 25° SE
ARGOS 3.2 22:10:34 23° SSE 22:14:01 69° ENE 22:19:26 10° N
CZ-4C R/B 3.9 22:12:56 28° SE 22:14:49 47° ENE 22:18:46 10° N
DEBRIS 3.5 22:11:19 10° WNW 22:14:53 26° SW 22:15:34 23° SSW
CZ-4B R/B 3.5 22:12:17 10° NNE 22:17:23 85° WNW 22:22:35 10° SSW
SL-16 R/B 4.4 22:15:34 10° WSW 22:20:17 27° NW 22:25:02 10° N
NOAA 11 4.1 22:22:44 26° SSE 22:25:54 80° ENE 22:31:21 10° N
COSMOS 2455 2.9 22:21:45 10° SSW 22:27:45 82° WNW 22:33:48 10° NNE
Cosmos 2279 Rocket 4.4 22:23:26 10° N 22:29:31 50° ENE 22:32:31 28° SE
Cosmos 1953 3.8 22:30:40 10° NNE 22:33:49 22° ENE 22:34:19 22° E
Lacrosse 5 rocket 4.5 22:32:28 10° WNW 22:35:01 16° NNW 22:37:40 10° NNE
Cosmos 2263 4.4 22:31:26 10° NNW 22:37:00 59° ENE 22:39:31 32° SE
Meteor 1-22 Rocket 4.2 22:31:38 10° N 22:37:13 77° E 22:40:02 31° SSE
Cosmos 1953 Rocket 3.5 22:35:33 34° S 22:37:25 77° E 22:41:52 10° N
ATLAS 3B R/B 2.9 22:30:29 10° SSW 22:38:03 63° ESE 22:45:29 10° NE
Cosmos 2346 Rocket 4.5 22:36:44 17° S 22:41:40 82° W 22:47:51 10° N
IGS 5A 3.8 22:43:55 41° ESE 22:44:50 50° ENE 22:48:53 10° N
Cosmos 1066 Rocket 4.4 22:43:48 18° SSW 22:48:04 75° W 22:53:54 10° N
USA 234 3.5 22:45:49 30° SSE 22:49:06 56° SW 22:55:34 10° NW
Cosmos 407 Rocket 3.4 22:49:26 30° S 22:52:06 76° ESE 22:57:20 10° NNE
SL-27 R/B 4.4 22:55:23 18° ENE 22:55:23 18° ENE 22:56:38 10° NE
Cosmos 1346 Rocket 3.0 22:56:00 38° SW 22:57:17 64° W 23:01:12 10° N
Cosmos-2242 3.3 22:53:20 10° N 22:57:40 53° E 22:58:21 47° ESE
SL-23 DEB 4.4 22:53:11 10° SW 23:01:53 15° ENE 23:02:29 10° ENE
SL-24 R/B 4.4 22:54:02 10° N 22:58:57 80° E 23:00:47 41° S
Lacrosse 4 Rocket 1.1 22:59:12 56° SSW 23:00:00 82° ESE 23:04:06 10° NNE
ISS -2.4 23:06:33 10° WSW 23:09:42 48° NNW 23:12:54 10° NE
BREEZE-M DEB (TANK) 3.8 23:07:40 10° W 23:09:52 27° NNW 23:09:52 27° NNW
PSLV R/B 4.4 23:07:08 10° W 23:09:23 36° WSW 23:09:23 36° WSW
Cosmos 1954 Rocket 4.0 23:09:47 48° SSE 23:11:07 65° ESE 23:16:22 10° NNE
Cosmos 1758 Rocket 4.1 23:10:06 34° SW 23:11:46 55° W 23:16:05 10° N
USA 238 DEB 4.0 23:10:59 38° SSE 23:12:47 45° ESE 23:19:27 10° NE
USA 238 4.1 23:11:09 38° SSE 23:12:53 45° ESE 23:19:32 10° NE
Cosmos 1943 3.8 23:07:47 10° SW 23:13:21 55° WNW 23:18:57 10° NNE
Cosmos 1842 3.1 23:13:33 80° S 23:13:45 90° W 23:17:42 10° N
Meteor 1-21 4.3 23:11:19 31° SSW 23:14:11 77° W 23:20:02 10° N
CARTOSAT-1 3.8 23:14:29 51° SSW 23:15:19 62° WSW 23:19:37 10° NNW
CZ-4B R/B 4.3 23:17:06 10° ENE 23:17:14 10° ENE 23:17:41 10° NE
Cosmos 1758 3.3 23:14:48 10° N 23:18:55 71° E 23:19:02 71° E
Cosmos 1943 Rocket 2.1 23:16:31 10° NNW 23:22:06 75° ENE 23:23:31 51° SE
Spot 4 3.9 23:22:16 54° SSW 23:23:14 72° WSW 23:28:02 10° NNW
Cosmos 1741 Rocket 4.4 23:27:52 44° ESE 23:27:57 44° ESE 23:33:00 10° NNE
H-2A R/B 2.6 23:28:49 38° SW 23:30:08 48° W 23:35:01 10° NNW
Cosmos 1766 4.4 23:30:14 10° NNW 23:33:52 34° W 23:34:21 33° WSW
Cosmos 1092 Rocket 4.1 23:33:02 47° SE 23:34:35 60° E 23:40:46 10° NNE
Cosmos 1656 Rocket 4.2 23:33:42 10° NNW 23:39:16 51° ENE 23:40:41 41° ESE
Terra 2.7 23:39:33 34° SW 23:40:31 38° W 23:44:59 10° NNW
Cosmos 1842 Rocket 3.4 23:37:10 10° N 23:41:33 82° E 23:41:34 82° E
Cosmos 1570 Rocket 4.0 23:37:20 10° NNW 23:42:43 78° ENE 23:43:34 63° SE
Cosmos 1733 4.5 23:42:27 10° N 23:45:24 33° NE 23:45:24 33° NE
Cosmos 1850 Rocket 3.9 23:46:11 65° SE 23:46:31 68° ESE 23:51:43 10° NNE
Nadezhda 4 Rocket 4.0 23:45:01 46° SSW 23:47:05 83° W 23:53:28 10° N
CZ-4C R/B 3.6 23:54:52 23° E 23:54:52 23° E 23:58:14 10° ENE
